Погода в Кутаиси

Погода в Кутаиси : погода сейчас, прогноз погоды и архив. Всё, что Вы хотите узнать о погоде в Кутаиси!

Поиск расширенной информации на нашем сайте:

Другие новости

Новости СМИ2

Главная страница сайта

Новости сайта

03.07.2017

Напоминаем, что на нашем специализированном сайте Метеоцентр.Азия вы можете получить высокодетализированные автоматические прогнозы погоды по пунктам России, СНГ и мира в авиационном формате (включающие направление и скорость ветра, видимость, явления погоды, количество и форму облачности, нижнюю и верхнюю границу облачности).

Рекомендуем: Киноманы могут смотреть ужасы онлайн бесплатно в хорошем качестве

Погода в Кутаиси - сегодня

Время (UTC), дата Ветер
(°,м/с) 
Видим.   Явления Облачность Т
(°С)
Тd
(°С)
f(%) Тe
(°С)
Pmin
(гПа)
dP
(гПа)
Po
(мм)
O2
(г/м3)
Тmin Tmax R s Состояние
почвы
12 15.04.18 270 (З) 20000 м    8/4 1500 м средняя 
[Sc|Ac trans]
+16 +5.1 48 +15  1022.3  -0.3  756  287           
21 15.04.18 090 (В) 10 км    3/0 средняя 
[Ac trans]
+7.2 +6.4 95 +6  1025.8  0.7  759  297           
00 16.04.18 090 (В) 10 км    3/0 средняя 
[Ac trans]
+6 +5.1 94 +6  1027.1  1.2  760  299           
03 16.04.18 090 (В) 20000 м    ясно 
+5 +3.8 92 +4  1027.1  -0.2  760  300           
09 16.04.18 090 (В) 20000 м    ясно 
+16.6 +4.8 46 +17  1024.9  -1.4  758  287           
12 16.04.18 090 (В) 20000 м    ясно 
+18.8 +4.5 39 +20  1022.2  -2.6  756  284           
03 17.04.18 090 (В) 20000 м    ясно 
+6.8 +4.7 86 +6  1022.1  756  296           
09 17.04.18 090 (В) 20000 м    4/0 средняя 
[Ac trans]
+19.6 +6.7 43 +20  1020.9  -0.4  756  283           
12 17.04.18 270 (З) 20000 м    6/0 средняя 
[Cu hum|Ac trans]
+21 +5.6 37 +21  1020.1  -0.7  755  282           
21 17.04.18 090 (В) 10 км    6/0 средняя 
[Ac trans]
+9.8 +7.7 87 +10  1021.9  756  293           
00 18.04.18 090 (В) 10 км    8/0 средняя 
[Ac trans]
+12 +6.5 69 +11  1021.5  -0.3  756  291           
03 18.04.18 090 (В) 20000 м    3/0 средняя 
[Ac trans]
+13.2 +5 57 +12  1021.4  756  290           
09 18.04.18 090 (В) 20000 м    9/0 средняя 
[Ac trans]
+21.6 +9.5 46 +22  1020.8  -0.6  756  280           
12 18.04.18 тихо ()   20000 м    9/0 средняя 
[Ac trans]
+23.8 +8.5 38 +24  1019.6  -1  755  278           
21 18.04.18 тихо ()   10 км    6/0 средняя 
[Ac trans]
+11 +10 94 +12  1019.5  -0.2  754  290           
00 19.04.18 тихо ()   10 км    6/0 средняя 
[Ac trans]
+10.2 +9.4 95 +11  1019.5  754  291           
03 19.04.18 тихо ()   20000 м    3/0 средняя 
[Ac trans]
+6.4 +6.2 99 +6  1019.6  -0.2  754  296           
09 19.04.18 270 (З) 20000 м    10/6 1000 м средняя 
[Sc|As op]
+14.4 +8.9 70 +14  1020.3  -0.4  755  287           
12 19.04.18 270 (З) 20000 м    9/5 1500 м средняя 
[Sc|Ac trans]
+16.4 +9 62 +17  1017.5  -2.7  753  285           
21 19.04.18 120 (ЮВ) 10 км  в посл. час ливневой дождь  10/8 600 м средняя 
[Sc|As op]
+11 +10 94 +12  1016.2  -0.9  752  289           
00 20.04.18 090 (В) 10 км  {ливн. осадки}  10/6 1000 м средняя 
[Sc|As op]
+10.7 +9.3 91 +10  1014.4  -1.8  750  289           
03 20.04.18 060 (СВ) 20000 м    10/6 1000 м средняя 
[Sc|As op]
+10.6 +9 90 +11  1012.7  -1.8  749  289      0.0     
09 20.04.18 240 (ЮЗ) 20000 м    10/6 1000 м средняя 
[Sc|As op]
+13.6 +9.9 78 +15  1011.6  -0.1  748  285           
12 20.04.18 270 (З) 20000 м    10/6 1000 м средняя 
[Sc|As op]
+15.6 +9.4 67 +16  1010.8  -0.6  748  283           
21 20.04.18 270 (З) 10 км  слаб. ливневой дождь  10/8 600 м кучево-дожд., средняя 
[Cb cap|As op]
+10.4 +9.8 96 +12  1013  749  289           
Время (UTC), дата Ветер
(°,м/с) 
Видим.   Явления Облачность Т
(°С)
Тd
(°С)
f(%) Тe
(°С)
Pmin
(гПа)
dP
(гПа)
Po
(мм)
O2
(г/м3)
Тmin Tmax R s Состояние
почвы

Для получения пояснительной информации подведите курсор к названию столбца.

ПОГОДА в Кутаиси - архив

Всё, что Вы хотите узнать о погоде в Кутаиси - удобно и подробно!

Выберите нужную дату (начиная с 1 января 2015* года) и нажмите кнопку "Найти".
Будут отображены архивные сводки погоды по пункту Кутаиси, начиная с указанной даты.


Отображать данные в формате CSV (для использования в таблицах Excel)


Внимание! Наш архив погоды предназначен исключительно для личного некоммерческого использования в познавательных целях. Если Вам необходимы официальные справки о состоянии погоды (для производственных, юридических, коммерческих и т.п. целей), обращайтесь в органы Росгидромета.

*Примечание: данная дата относится к архиву по метеостанциям СССР (Россия, СНГ, Балтия).
Архив по метеостанциям Зарубежной Европы и Азии (кроме Китая) хранится 10 дней, по другим регионам земного шара (Китай, Африка, Америка, Австралия, Океания) - 1 день.

Кутаиси - район местоположения метеостанции


Название, широта, долгота, высота метеостанции:
Кутаиси 42.3°ш. 42.6°д. 116 м над ур. моря [Грузия]

Дополнительная информация

В oтличие oт бoльшинства пoгoдных сайтoв мы публикуем пoдрoбную метеoинфoрмацию в детальнoм прoфессиoнальнoм фoрмате.

Характеристики температуры и влажнoсти вoздуха измеряются на высoте 2 м в тени вдали oт зданий и деревьев.
Скoрoсть ветра измеряется на высoте 10 м (на урoвне рoста челoвека скoрoсть ветра ниже в 1.5-2 раза). Если метеoстанция нахoдится в гoрoде или в лесу, тo скoрoсть ветра занижена на 2-4 м/с пo сравнению с oткрытым местoм. Скoрoсть ветра над акватoриями крупных рек и oзёр, а также на вершинах хoлмoв на 2-5 м/с выше, чем в oбычных услoвиях.
Атмoсфернoе давление в разных тoчках местнoсти мoжет значительнo oтличаться oт давления на метеoстанции, в зависимoсти oт услoвий рельефа (при пoдъёме на 10 м давление пoнижается примернo на 1 мм рт.ст.).